Location: Kerb�bon
(47.7970°N, 3.3487°W)
Time: 09:04:11
(UTC+00:00)

ATLAS 2AS CENTAUR R/B - Pass Details

Date: 12 May 2021
Orbit: 949 x 1263 km, 63.7° (Epoch: 07 May)

Event Time Altitude Azimuth Distance (km) Brightness Sun altitude
Rises 22:27:45 0° 319° (NW) 4,105 7.2 -20.0°
Reaches altitude 10° 22:30:35 10° 317° (NW) 3,098 6.2 -20.2°
Maximum altitude 22:37:56 72° 235° (SW) 1,160 2.8 -20.7°
Enters shadow 22:40:56 36° 161° (SSE) 1,632 3.1 -20.9°
